CIUDAD REAL current weather conditions

sailwx.info

Wind from 290 at 12 knots

Air temperature 32.0° C
Dewpoint -3.0° C

Last reported at 2014-Jul-28 19:00 UTC.
Time now 2014-Jul-28 20:40 UTC

Location: N 38°59' W 003°55'.
View on Google Maps.

See reports from other nearby stations

  
Tides and Currents Weather Stations Pressure Air Temp Water Temp Dewpoint Dewpoint Depression Visibility Wind Speed Wind Dir Waves Ship Positions
date/time (UTC)wind fromknots sea level pressurealtimeterstation pressurevisibilityair tempwater tempwave heightnotes
2014-Jul-28 19:00 290 12 32.0
2014-Jul-28 18:00 290 12 33.0
2014-Jul-28 17:00 270 12 34.0
2014-Jul-28 16:00 270 12 35.0
2014-Jul-28 15:00 270 12 35.0
2014-Jul-28 14:00 280 11 35.0
2014-Jul-28 13:00 290 13 34.0
2014-Jul-28 12:00 290 8 33.0
2014-Jul-28 11:00 290 9 32.0
2014-Jul-28 10:00 270 7 30.0
2014-Jul-28 09:00 260 7 28.0
2014-Jul-28 08:00 260 10 26.0
2014-Jul-28 07:00 260 7 24.0
2014-Jul-28 06:00 250 6 22.0
2014-Jul-28 05:00 250 5 22.0
2014-Jul-27 18:00 290 8 gusting 18 35.0
2014-Jul-27 17:00 290 6 36.0
2014-Jul-27 16:00 260 9 36.0
2014-Jul-27 15:00 290 6 36.0
2014-Jul-27 14:00 270 4 36.0
2014-Jul-27 13:00 280 4 35.0
2014-Jul-27 12:00 250 4 34.0
2014-Jul-27 11:00 330 2 33.0
2014-Jul-27 10:00 260 3 30.0
2014-Jul-27 09:00 260 5 29.0
2014-Jul-27 08:00 270 6 26.0
2014-Jul-27 07:00 24.0
2014-Jul-27 06:00 20.0
2014-Jul-27 05:00 21.0